QPF
0.00 0.00 0.00 0.00 0.00 0.00 0.00 0.00 0.00 0.00 0.00 0.00 0.00 0.00 0.00 0.00 0.00 0.00 0.00 0.00 0.00 0.00 0.00 0.00 0.00 0.00 0.00 0.00 0.00 0.00 0.00 0.00 0.01 0.05 0.49 0.45 0.81 0.69 0.10 0.10 0.05 0.06 0.03 0.00 0.00
0.00 0.00 0.00 0.00 0.00 0.00 0.00 0.00 0.00 0.00 0.00 0.00 0.00 0.00 0.00 0.00 0.00 0.00 0.00 0.00 0.00 0.00 0.00 0.00 0.00 0.00 0.00 0.00 0.00 0.00 0.00 0.00 0.00 0.01 0.02 0.39 0.62 0.33 0.18 0.15 0.49 0.18 0.01 0.00 0.00
0.00 0.00 0.00 0.00 0.00 0.00 0.00 0.00 0.00 0.00 0.00 0.00 0.00 0.00 0.00 0.00 0.00 0.00 0.00 0.00 0.00 0.00 0.00 0.00 0.00 0.00 0.00 0.00 0.00 0.00 0.00 0.00 0.00 0.00 0.00 0.06 0.07 0.05 0.14 0.35 0.16 0.10 0.01 0.00 0.00
0.00 0.00 0.00 0.00 0.00 0.00 0.00 0.00 0.00 0.00 0.00 0.00 0.00 0.00 0.00 0.00 0.00 0.00 0.00 0.00 0.00 0.00 0.00 0.00 0.00 0.00 0.00 0.00 0.00 0.00 0.00 0.00 0.00 0.00 0.00 0.07 0.15 0.18 0.14 0.19 0.17 0.11 0.01 0.00 0.00
0.00 0.00 0.00 0.00 0.00 0.00 0.00 0.00 0.00 0.00 0.00 0.00 0.00 0.00 0.00 0.00 0.00 0.00 0.00 0.00 0.00 0.00 0.00 0.00 0.00 0.00 0.00 0.00 0.00 0.00 0.00 0.00 0.00 0.00 0.00 0.16 0.08 0.24 0.08 0.13 0.21 0.16 0.02 0.00 0.00
0.00 0.00 0.00 0.00 0.00 0.00 0.00 0.00 0.00 0.00 0.00 0.00 0.00 0.00 0.00 0.00 0.00 0.00 0.00 0.00 0.00 0.00 0.00 0.00 0.00 0.00 0.00 0.00 0.00 0.00 0.00 0.00 0.00 0.00 0.00 0.04 0.04 0.10 0.03 0.16 0.08 0.04 0.02 0.00 0.00
0.00 0.00 0.00 0.00 0.00 0.00 0.00 0.00 0.00 0.00 0.00 0.00 0.00 0.00 0.00 0.00 0.00 0.00 0.00 0.00 0.00 0.00 0.00 0.00 0.00 0.00 0.00 0.00 0.00 0.00 0.00 0.00 0.00 0.00 0.01 0.03 0.05 0.07 0.07 0.08 0.05 0.04 0.02 0.00 0.00
0.00 0.00 0.00 0.00 0.00 0.00 0.00 0.00 0.00 0.00 0.00 0.00 0.00 0.00 0.00 0.00 0.00 0.00 0.00 0.00 0.00 0.00 0.00 0.00 0.00 0.00 0.00 0.00 0.00 0.00 0.00 0.00 0.00 0.00 0.00 0.01 0.16 0.21 0.09 0.02 0.03 0.06 0.01 0.00 0.00
0.00 0.00 0.00 0.00 0.00 0.00 0.00 0.00 0.00 0.00 0.00 0.00 0.00 0.00 0.00 0.00 0.00 0.00 0.00 0.00 0.00 0.00 0.00 0.00 0.00 0.00 0.00 0.00 0.00 0.00 0.00 0.00 0.00 0.00 0.00 0.01 0.06 0.16 0.08 0.02 0.01 0.03 0.08 0.01 0.00
0.00 0.00 0.00 0.00 0.00 0.00 0.00 0.00 0.00 0.00 0.00 0.00 0.00 0.00 0.00 0.00 0.00 0.00 0.00 0.00 0.00 0.00 0.00 0.00 0.00 0.00 0.00 0.00 0.00 0.00 0.00 0.00 0.00 0.00 0.00 0.00 0.00 0.00 0.02 0.00 0.05 0.20 0.05 0.03 0.01
0.00 0.00 0.00 0.00 0.00 0.00 0.00 0.00 0.00 0.00 0.00 0.00 0.00 0.00 0.00 0.00 0.00 0.00 0.00 0.00 0.00 0.00 0.00 0.00 0.00 0.00 0.00 0.00 0.00 0.00 0.00 0.00 0.00 0.00 0.00 0.00 0.00 0.00 0.00 0.00 0.01 0.02 0.01 0.01 0.00
0.00 0.00 0.00 0.00 0.00 0.00 0.00 0.00 0.00 0.00 0.00 0.00 0.00 0.00 0.00 0.00 0.00 0.00 0.00 0.00 0.00 0.00 0.00 0.00 0.00 0.00 0.00 0.00 0.00 0.00 0.00 0.00 0.00 0.00 0.00 0.00 0.01 0.06 0.04 0.03 0.04 0.03 0.03 0.01 0.00
0.00 0.00 0.00 0.00 0.00 0.00 0.00 0.00 0.00 0.00 0.00 0.00 0.00 0.00 0.00 0.00 0.00 0.00 0.00 0.00 0.00 0.00 0.00 0.00 0.00 0.00 0.00 0.00 0.00 0.00 0.00 0.00 0.00 0.00 0.00 0.00 0.01 0.04 0.03 0.06 0.03 0.02 0.00 0.00 0.00
0.00 0.00 0.00 0.00 0.00 0.00 0.00 0.00 0.00 0.00 0.00 0.00 0.00 0.00 0.00 0.00 0.00 0.00 0.00 0.00 0.00 0.00 0.00 0.00 0.00 0.00 0.00 0.00 0.00 0.00 0.00 0.00 0.00 0.00 0.00 0.00 0.00 0.00 0.01 0.01 0.02 0.00 0.00 0.00 0.00
0.00 0.00 0.00 0.00 0.00 0.00 0.00 0.00 0.00 0.00 0.00 0.00 0.00 0.00 0.00 0.00 0.00 0.00 0.00 0.00 0.00 0.00 0.00 0.00 0.00 0.00 0.00 0.00 0.00 0.00 0.00 0.00 0.00 0.00 0.00 0.00 0.00 0.00 0.00 0.00 0.00 0.00 0.00 0.01 0.00
0.00 0.00 0.00 0.00 0.00 0.00 0.00 0.00 0.00 0.00 0.00 0.00 0.00 0.00 0.00 0.00 0.00 0.00 0.00 0.00 0.00 0.00 0.00 0.00 0.00 0.00 0.00 0.00 0.00 0.00 0.00 0.00 0.00 0.00 0.00 0.00 0.00 0.00 0.00 0.00 0.00 0.00 0.00 0.00 0.00
0.00 0.00 0.00 0.00 0.00 0.00 0.00 0.00 0.00 0.00 0.00 0.00 0.00 0.00 0.00 0.00 0.00 0.00 0.00 0.00 0.00 0.00 0.00 0.00 0.00 0.00 0.00 0.00 0.00 0.00 0.00 0.00 0.00 0.00 0.00 0.00 0.00 0.00 0.00 0.00 0.00 0.00 0.00 0.00 0.00
0.00 0.00 0.00 0.00 0.00 0.00 0.00 0.00 0.00 0.00 0.00 0.00 0.00 0.00 0.00 0.00 0.00 0.00 0.00 0.00 0.00 0.00 0.00 0.00 0.00 0.00 0.00 0.00 0.00 0.00 0.00 0.00 0.00 0.00 0.00 0.00 0.00 0.00 0.00 0.00 0.00 0.00 0.00 0.00 0.00
0.00 0.00 0.00 0.00 0.00 0.00 0.00 0.00 0.00 0.00 0.00 0.00 0.00 0.00 0.00 0.00 0.00 0.00 0.00 0.00 0.00 0.00 0.00 0.00 0.00 0.00 0.00 0.00 0.00 0.00 0.00 0.00 0.00 0.00 0.00 0.00 0.00 0.00 0.00 0.00 0.00 0.00 0.00 0.00 0.00
0.00 0.00 0.00 0.00 0.00 0.00 0.00 0.00 0.00 0.00 0.00 0.00 0.00 0.00 0.00 0.00 0.00 0.00 0.00 0.00 0.00 0.00 0.00 0.00 0.00 0.00 0.00 0.00 0.00 0.00 0.00 0.00 0.00 0.00 0.00 0.00 0.00 0.00 0.00 0.00 0.00 0.00 0.00 0.00 0.01
0.00 0.00 0.00 0.00 0.00 0.00 0.00 0.00 0.00 0.00 0.00 0.00 0.00 0.00 0.00 0.00 0.00 0.00 0.00 0.00 0.00 0.00 0.00 0.00 0.00 0.00 0.00 0.00 0.00 0.00 0.00 0.00 0.00 0.00 0.00 0.00 0.00 0.00 0.00 0.00 0.00 0.00 0.00 0.00 0.01
0.00 0.00 0.00 0.00 0.00 0.00 0.00 0.00 0.00 0.00 0.00 0.00 0.00 0.00 0.00 0.00 0.00 0.00 0.00 0.00 0.00 0.00 0.00 0.00 0.00 0.00 0.00 0.00 0.00 0.00 0.00 0.00 0.00 0.00 0.00 0.00 0.00 0.00 0.00 0.00 0.00 0.00 0.00 0.00 0.01
0.00 0.00 0.00 0.00 0.00 0.00 0.00 0.00 0.00 0.00 0.00 0.00 0.00 0.00 0.00 0.00 0.00 0.00 0.00 0.00 0.00 0.00 0.00 0.00 0.00 0.00 0.00 0.00 0.00 0.00 0.00 0.00 0.00 0.00 0.00 0.00 0.00 0.00 0.00 0.01 0.01 0.00 0.03 0.07 0.09
0.00 0.00 0.00 0.00 0.00 0.00 0.00 0.00 0.00 0.00 0.00 0.00 0.00 0.00 0.00 0.00 0.00 0.00 0.00 0.00 0.00 0.00 0.00 0.00 0.00 0.00 0.00 0.00 0.00 0.00 0.00 0.00 0.00 0.00 0.00 0.00 0.00 0.00 0.00 0.03 0.07 0.06 0.03 0.07 0.12
0.00 0.00 0.00 0.00 0.00 0.00 0.00 0.00 0.00 0.00 0.00 0.00 0.00 0.00 0.00 0.00 0.00 0.00 0.00 0.00 0.00 0.00 0.00 0.00 0.00 0.00 0.00 0.00 0.00 0.00 0.00 0.00 0.00 0.00 0.00 0.00 0.00 0.00 0.00 0.01 0.04 0.09 0.06 0.04 0.02
0.00 0.00 0.00 0.00 0.00 0.00 0.00 0.00 0.00 0.00 0.00 0.00 0.00 0.00 0.00 0.00 0.00 0.00 0.00 0.00 0.00 0.00 0.00 0.00 0.00 0.00 0.00 0.00 0.00 0.00 0.00 0.00 0.00 0.00 0.00 0.00 0.00 0.00 0.00 0.00 0.01 0.05 0.10 0.07 0.05
0.00 0.00 0.00 0.00 0.00 0.00 0.00 0.00 0.00 0.00 0.00 0.00 0.00 0.00 0.00 0.00 0.00 0.00 0.00 0.00 0.00 0.00 0.00 0.00 0.00 0.00 0.00 0.00 0.00 0.00 0.00 0.00 0.00 0.00 0.00 0.00 0.00 0.00 0.00 0.00 0.00 0.00 0.04 0.10 0.07
MSLP
1018.67 1018.22 1017.80 1017.39 1016.90 1016.46 1016.00 1015.56 1015.07 1014.82 1014.50 1014.22 1014.04 1013.86 1013.72 1013.60 1013.36 1013.16 1012.14 1009.43 1009.45 1009.35 1009.58 1009.96 1010.32 1010.24 1010.56 1010.79 1010.59 1010.32 1010.76 1010.60 1010.30 1010.45 1010.81 1011.67 1010.67 1011.33 1010.25 1010.39 1010.20 1010.66 1010.68 1011.59 1012.51
1018.62 1018.16 1017.72 1017.24 1016.73 1016.21 1015.77 1015.29 1014.88 1014.42 1014.26 1013.97 1013.74 1013.63 1013.52 1013.36 1013.17 1011.92 1008.68 1008.64 1008.84 1009.19 1009.60 1009.73 1009.97 1010.14 1010.51 1010.38 1010.32 1010.17 1010.14 1009.69 1009.62 1009.88 1010.18 1010.88 1011.67 1011.19 1011.44 1010.83 1010.68 1011.18 1011.70 1012.28 1012.68
1018.60 1018.10 1017.58 1017.06 1016.54 1016.02 1015.54 1015.10 1014.67 1014.27 1013.84 1013.69 1013.44 1013.40 1013.29 1013.23 1012.60 1008.90 1007.22 1008.00 1008.45 1008.73 1009.09 1009.42 1009.66 1009.99 1010.24 1009.92 1009.70 1009.21 1009.00 1009.25 1009.28 1009.73 1009.88 1010.90 1011.84 1012.20 1011.62 1011.36 1010.85 1011.19 1011.42 1012.26 1012.92
1018.50 1017.98 1017.46 1016.90 1016.34 1015.82 1015.34 1014.88 1014.44 1014.02 1013.73 1013.34 1013.18 1013.12 1013.07 1013.11 1010.84 1007.18 1006.93 1007.75 1008.38 1008.74 1009.18 1009.36 1009.80 1010.11 1009.82 1009.54 1008.78 1008.73 1007.73 1008.47 1009.05 1009.45 1009.52 1010.20 1011.16 1011.06 1011.03 1011.22 1011.18 1011.01 1011.00 1011.54 1012.78
1018.41 1017.80 1017.24 1016.70 1016.19 1015.64 1015.10 1014.63 1014.24 1013.80 1013.49 1013.15 1012.94 1013.02 1013.06 1012.12 1009.14 1006.61 1007.15 1007.82 1008.52 1008.90 1009.08 1009.33 1009.58 1009.70 1009.47 1008.60 1008.46 1008.22 1007.22 1007.79 1008.36 1009.11 1009.48 1009.77 1010.69 1011.02 1010.56 1010.72 1010.20 1010.99 1011.97 1011.62 1012.58
1018.22 1017.64 1017.00 1016.40 1015.84 1015.37 1014.86 1014.34 1013.96 1013.60 1013.25 1012.88 1012.80 1012.88 1012.57 1010.37 1006.52 1006.52 1007.18 1007.98 1008.22 1008.71 1008.88 1008.96 1008.65 1008.71 1008.69 1008.10 1008.01 1006.94 1006.96 1006.96 1007.96 1008.75 1009.28 1008.81 1010.38 1011.45 1011.10 1010.93 1011.12 1010.90 1011.44 1011.73 1012.18
1017.87 1017.32 1016.72 1016.11 1015.52 1015.00 1014.50 1013.96 1013.52 1013.29 1013.00 1012.66 1012.55 1012.59 1011.74 1008.25 1006.30 1006.68 1006.95 1007.21 1007.48 1008.04 1008.44 1007.95 1008.43 1008.60 1008.45 1007.86 1006.93 1006.84 1006.97 1006.61 1007.45 1008.03 1008.80 1009.09 1010.59 1011.45 1011.11 1011.13 1010.59 1011.30 1011.38 1011.79 1011.91
1017.60 1016.95 1016.32 1015.74 1015.18 1014.62 1014.03 1013.41 1012.91 1012.71 1012.59 1012.43 1012.38 1012.26 1010.18 1006.63 1006.07 1006.44 1006.77 1006.97 1007.09 1007.32 1007.58 1007.71 1008.36 1008.60 1008.46 1007.51 1006.91 1006.94 1007.05 1006.87 1007.12 1007.66 1008.38 1008.65 1010.35 1010.83 1011.21 1011.05 1011.24 1011.06 1011.38 1011.37 1011.73
1017.40 1016.74 1015.99 1015.30 1014.70 1014.14 1013.47 1012.63 1012.06 1011.74 1012.07 1012.23 1012.40 1011.92 1008.92 1006.30 1006.16 1005.46 1005.66 1006.23 1006.69 1007.14 1007.39 1007.50 1007.93 1008.15 1008.05 1007.94 1007.76 1007.96 1007.78 1007.24 1006.41 1006.75 1007.65 1009.11 1010.16 1011.22 1009.76 1010.23 1010.49 1010.90 1011.04 1011.22 1011.41
1017.05 1016.37 1015.74 1015.01 1014.30 1013.73 1012.86 1011.74 1011.62 1011.55 1011.94 1011.90 1011.60 1011.30 1008.16 1006.17 1005.36 1005.13 1005.05 1005.39 1006.36 1006.85 1007.54 1007.73 1008.02 1008.24 1008.28 1008.56 1008.83 1008.57 1008.24 1007.50 1007.01 1006.12 1007.21 1008.65 1009.26 1009.96 1010.19 1010.51 1010.30 1010.06 1010.60 1010.94 1011.15
1016.71 1015.96 1015.31 1014.64 1014.00 1013.55 1012.75 1011.78 1011.62 1011.58 1011.02 1010.17 1009.58 1008.70 1006.75 1005.54 1004.97 1005.11 1004.92 1005.29 1005.99 1006.81 1007.58 1007.64 1008.43 1008.62 1008.36 1008.39 1008.42 1008.39 1008.33 1007.74 1006.66 1006.28 1006.86 1007.62 1008.94 1009.40 1010.28 1010.62 1010.20 1010.19 1010.08 1009.79 1010.71
1016.46 1015.69 1014.79 1014.03 1013.42 1013.12 1013.21 1012.14 1010.26 1009.77 1009.60 1008.59 1007.83 1007.48 1006.11 1005.48 1005.32 1005.18 1005.07 1005.66 1006.12 1007.02 1007.52 1008.11 1008.30 1008.06 1007.92 1007.90 1008.12 1008.23 1008.32 1007.44 1006.45 1005.99 1006.36 1007.52 1008.53 1010.04 1010.36 1010.22 1010.15 1009.87 1010.03 1009.63 1009.44
1016.19 1015.44 1014.58 1013.58 1012.64 1012.36 1012.08 1010.57 1009.04 1009.22 1009.62 1007.76 1006.69 1005.98 1005.38 1005.10 1005.16 1005.13 1005.28 1005.70 1006.24 1007.14 1007.52 1008.03 1007.49 1007.47 1007.65 1007.62 1007.84 1007.81 1007.88 1007.31 1007.00 1006.38 1007.05 1008.26 1010.08 1010.66 1010.79 1010.75 1010.65 1010.10 1009.30 1009.28 1009.19
1015.96 1015.28 1014.58 1013.34 1012.44 1012.52 1011.11 1009.42 1008.81 1008.73 1009.49 1007.45 1006.00 1004.93 1004.80 1004.82 1005.16 1004.80 1005.11 1005.66 1006.15 1006.74 1007.22 1007.62 1006.86 1007.12 1007.12 1007.17 1007.26 1007.42 1006.74 1006.85 1006.90 1007.06 1007.80 1007.84 1010.18 1010.88 1010.95 1010.90 1010.48 1009.59 1009.01 1009.06 1009.11
1015.60 1015.00 1014.43 1014.14 1013.60 1012.52 1010.21 1009.16 1008.86 1009.09 1008.84 1006.48 1005.57 1004.52 1004.79 1005.30 1005.39 1005.20 1005.02 1005.46 1006.12 1006.62 1007.31 1007.28 1006.52 1006.51 1006.55 1006.42 1006.38 1006.61 1006.12 1006.56 1006.89 1007.57 1008.35 1008.69 1009.25 1010.02 1010.49 1010.55 1009.91 1009.06 1008.61 1008.35 1008.29
1015.02 1014.70 1014.36 1013.93 1013.63 1011.04 1010.05 1009.63 1009.33 1010.27 1008.02 1006.41 1005.50 1005.17 1005.46 1005.44 1005.66 1005.43 1005.61 1005.87 1006.13 1006.73 1007.03 1006.93 1006.20 1006.14 1005.77 1005.67 1005.86 1005.83 1006.28 1007.10 1007.86 1008.66 1009.02 1009.49 1009.37 1009.70 1009.29 1007.80 1007.92 1008.05 1007.86 1007.62 1007.68
1014.35 1013.89 1014.26 1013.40 1011.78 1010.10 1010.16 1010.24 1010.93 1010.10 1008.04 1007.51 1006.58 1006.17 1006.19 1006.19 1006.22 1006.19 1006.75 1007.23 1007.85 1008.26 1008.36 1007.65 1007.10 1006.25 1006.21 1005.85 1005.71 1006.14 1007.62 1008.83 1009.94 1010.19 1010.31 1009.01 1009.29 1008.03 1007.17 1006.50 1006.38 1006.42 1006.88 1007.01 1007.02
1013.72 1012.92 1012.54 1011.61 1010.39 1010.72 1011.03 1011.28 1011.46 1010.68 1009.65 1008.53 1007.68 1006.97 1007.14 1006.90 1007.42 1007.40 1008.04 1008.96 1009.10 1009.50 1010.00 1009.83 1008.81 1008.07 1007.87 1007.79 1007.48 1007.32 1008.13 1009.50 1010.50 1011.12 1010.76 1009.27 1008.58 1006.81 1005.55 1005.02 1004.62 1004.51 1004.77 1006.00 1007.20
1013.30 1012.46 1012.06 1010.03 1010.00 1011.06 1011.81 1011.95 1012.64 1011.49 1010.80 1009.97 1008.81 1008.60 1008.58 1008.18 1008.27 1008.90 1010.07 1011.21 1011.37 1010.95 1011.36 1011.51 1010.40 1009.30 1008.68 1008.34 1008.22 1008.48 1008.88 1009.04 1010.55 1011.38 1011.35 1010.27 1008.49 1006.30 1006.65 1006.46 1005.67 1004.39 1004.76 1005.01 1005.36
1013.84 1013.04 1011.36 1008.88 1009.57 1010.88 1012.16 1012.68 1012.38 1011.74 1010.98 1010.56 1010.75 1010.58 1010.60 1010.30 1010.08 1010.19 1011.64 1012.82 1012.46 1012.39 1011.96 1013.25 1012.60 1011.36 1009.99 1009.12 1009.31 1010.16 1010.24 1010.26 1011.22 1011.95 1012.18 1011.05 1009.98 1009.01 1008.60 1007.68 1005.74 1004.68 1004.02 1003.89 1004.58
1014.00 1013.00 1009.83 1008.83 1009.54 1011.55 1013.18 1013.02 1012.58 1012.14 1011.68 1011.67 1011.90 1011.94 1012.13 1011.82 1011.87 1012.13 1013.44 1013.86 1013.30 1013.35 1013.51 1014.34 1014.45 1013.43 1012.10 1012.49 1012.50 1011.78 1012.80 1012.54 1012.15 1012.14 1012.34 1012.06 1011.42 1010.87 1010.04 1009.02 1007.46 1004.70 1003.34 1003.33 1003.56
1014.66 1013.38 1009.93 1009.36 1011.20 1012.70 1013.42 1013.07 1012.91 1012.86 1012.51 1012.68 1012.78 1012.95 1013.23 1013.00 1013.20 1013.60 1014.18 1014.03 1013.94 1013.91 1015.00 1015.52 1016.16 1016.12 1014.89 1014.02 1013.34 1013.46 1014.97 1015.02 1015.17 1014.09 1013.35 1012.47 1012.09 1011.37 1010.53 1009.22 1008.24 1005.84 1003.44 1004.58 1004.33
1016.06 1014.13 1010.68 1010.22 1012.96 1014.14 1013.98 1013.94 1013.79 1013.68 1013.68 1013.72 1013.94 1013.90 1013.91 1013.99 1014.36 1014.44 1014.59 1014.61 1014.40 1014.90 1015.89 1016.22 1017.45 1017.64 1016.42 1015.71 1015.09 1015.48 1015.91 1016.11 1015.73 1015.14 1014.36 1013.70 1012.56 1012.06 1010.55 1010.20 1010.25 1008.49 1007.38 1007.38 1007.67
1016.38 1015.24 1013.72 1013.34 1014.30 1014.62 1015.11 1015.25 1014.68 1014.34 1014.46 1014.62 1015.02 1014.72 1014.94 1015.30 1015.05 1015.61 1015.58 1015.55 1015.49 1015.62 1016.26 1016.92 1018.85 1019.69 1019.86 1019.27 1018.31 1017.10 1016.59 1016.57 1016.55 1016.33 1015.82 1014.63 1013.71 1013.11 1012.26 1011.76 1011.58 1011.47 1010.71 1009.80 1009.22
1016.50 1016.46 1015.56 1016.05 1016.02 1016.00 1016.04 1016.25 1015.81 1015.61 1015.39 1015.39 1015.79 1015.90 1016.25 1016.72 1016.50 1016.79 1016.76 1016.64 1016.58 1016.93 1017.26 1018.28 1019.86 1020.08 1020.06 1019.26 1018.44 1017.72 1017.04 1016.77 1016.74 1016.73 1016.38 1015.46 1015.00 1014.87 1013.98 1013.31 1013.22 1012.62 1012.65 1012.27 1011.95
1016.84 1016.84 1016.14 1016.63 1016.56 1016.78 1017.30 1017.42 1016.85 1016.62 1016.35 1016.66 1016.66 1016.84 1016.84 1017.58 1017.88 1017.94 1017.71 1017.76 1017.95 1017.94 1018.54 1019.32 1020.39 1020.70 1020.64 1019.74 1018.85 1017.97 1017.52 1016.94 1016.65 1016.54 1016.38 1016.08 1015.50 1015.77 1014.94 1014.04 1013.64 1013.43 1013.10 1013.06 1012.64
1017.17 1016.79 1016.86 1017.46 1017.56 1017.80 1018.04 1017.83 1017.62 1017.30 1017.13 1016.91 1016.98 1017.22 1017.43 1017.59 1017.56 1017.66 1017.92 1018.24 1018.47 1018.91 1019.42 1020.08 1020.88 1021.78 1021.58 1020.55 1019.46 1018.83 1018.21 1017.42 1017.34 1017.22 1016.90 1017.02 1017.23 1016.74 1016.11 1015.62 1015.42 1014.92 1014.20 1013.43 1013.49
Thickness
5704 5708 5711 5714 5719 5723 5727 5731 5736 5739 5743 5746 5749 5752 5754 5757 5760 5763 5770 5797 5799 5800 5799 5796 5791 5792 5791 5782 5789 5796 5761 5757 5773 5773 5765 5766 5756 5774 5799 5791 5801 5796 5797 5797 5798
5700 5703 5706 5710 5714 5719 5723 5728 5733 5738 5741 5745 5748 5751 5753 5756 5758 5765 5799 5801 5802 5800 5793 5787 5781 5785 5774 5778 5782 5775 5759 5775 5789 5786 5778 5775 5761 5773 5774 5783 5786 5786 5794 5796 5796
5695 5698 5702 5707 5711 5715 5720 5724 5729 5734 5739 5743 5746 5748 5751 5754 5756 5784 5807 5802 5801 5801 5798 5792 5790 5783 5771 5782 5780 5782 5774 5784 5790 5787 5791 5778 5770 5776 5775 5773 5786 5784 5790 5792 5791
5689 5693 5697 5702 5707 5712 5716 5721 5725 5731 5735 5740 5744 5746 5749 5750 5758 5798 5806 5801 5797 5797 5791 5786 5780 5770 5769 5770 5788 5772 5801 5791 5789 5793 5790 5785 5782 5780 5785 5784 5790 5796 5798 5796 5789
5685 5688 5692 5697 5702 5707 5713 5718 5722 5727 5731 5735 5740 5742 5743 5748 5763 5802 5799 5796 5792 5789 5782 5778 5772 5769 5765 5778 5785 5778 5796 5800 5793 5790 5790 5791 5779 5781 5785 5790 5799 5794 5787 5793 5790
5679 5684 5688 5693 5698 5703 5708 5714 5719 5723 5728 5733 5736 5737 5741 5743 5796 5797 5795 5790 5788 5784 5780 5779 5776 5779 5773 5780 5779 5799 5799 5802 5790 5787 5788 5793 5782 5771 5783 5789 5788 5793 5790 5791 5793
5673 5678 5684 5689 5694 5699 5704 5710 5715 5719 5724 5729 5732 5735 5737 5755 5793 5791 5792 5790 5790 5785 5776 5785 5784 5775 5776 5776 5797 5798 5786 5795 5787 5791 5784 5795 5770 5763 5784 5785 5790 5790 5792 5790 5793
5667 5672 5678 5684 5689 5694 5700 5707 5713 5717 5720 5724 5727 5730 5733 5783 5790 5788 5786 5785 5789 5789 5784 5786 5783 5773 5774 5786 5791 5783 5782 5767 5784 5791 5792 5794 5757 5774 5781 5790 5784 5789 5788 5791 5792
5661 5665 5672 5679 5685 5691 5697 5706 5713 5717 5717 5718 5719 5721 5733 5780 5773 5788 5790 5779 5781 5782 5781 5785 5779 5766 5772 5763 5752 5756 5749 5763 5779 5801 5787 5779 5759 5767 5791 5795 5790 5787 5791 5790 5792
5656 5660 5665 5672 5679 5685 5695 5706 5708 5711 5711 5713 5717 5712 5743 5754 5773 5782 5790 5787 5773 5771 5766 5764 5758 5749 5748 5739 5717 5739 5743 5755 5759 5792 5786 5774 5772 5779 5784 5788 5793 5798 5794 5794 5792
5653 5657 5661 5667 5673 5678 5688 5697 5698 5698 5706 5710 5717 5725 5745 5763 5775 5768 5780 5774 5768 5758 5738 5752 5733 5726 5741 5748 5750 5753 5750 5751 5773 5790 5783 5776 5767 5778 5778 5784 5788 5790 5795 5799 5795
5648 5652 5659 5665 5670 5673 5674 5683 5698 5702 5692 5717 5725 5729 5746 5755 5742 5754 5771 5751 5749 5732 5741 5734 5722 5744 5753 5756 5751 5747 5741 5750 5771 5788 5784 5769 5763 5769 5777 5784 5788 5791 5794 5801 5804
5643 5646 5652 5661 5669 5672 5675 5685 5704 5705 5680 5704 5721 5727 5734 5746 5735 5738 5753 5746 5738 5726 5730 5717 5736 5751 5746 5743 5740 5740 5737 5748 5752 5775 5771 5763 5745 5752 5768 5778 5783 5792 5805 5804 5804
5638 5640 5644 5653 5663 5660 5670 5690 5696 5700 5651 5683 5708 5723 5731 5736 5723 5750 5751 5742 5734 5722 5727 5721 5745 5742 5739 5737 5744 5721 5759 5763 5762 5754 5730 5766 5711 5735 5754 5758 5772 5789 5798 5796 5799
5632 5635 5636 5638 5640 5649 5672 5683 5690 5682 5638 5695 5702 5734 5725 5714 5719 5724 5748 5735 5718 5719 5720 5714 5733 5732 5731 5741 5752 5740 5764 5761 5764 5749 5736 5746 5728 5734 5750 5749 5764 5785 5795 5803 5808
5632 5632 5632 5633 5633 5655 5666 5674 5673 5633 5642 5680 5698 5697 5698 5706 5708 5718 5720 5729 5729 5718 5722 5722 5746 5743 5742 5754 5754 5764 5754 5742 5737 5727 5707 5727 5732 5726 5745 5777 5786 5793 5800 5808 5812
5635 5636 5630 5633 5641 5659 5661 5657 5623 5618 5669 5662 5677 5688 5685 5685 5694 5701 5695 5690 5680 5679 5683 5707 5718 5734 5738 5735 5746 5748 5716 5684 5689 5689 5696 5733 5722 5741 5776 5795 5802 5802 5801 5811 5817
5637 5643 5642 5645 5655 5653 5649 5633 5612 5639 5639 5664 5672 5683 5673 5685 5678 5685 5675 5660 5679 5679 5661 5667 5675 5699 5722 5715 5716 5724 5713 5681 5679 5677 5697 5731 5719 5752 5794 5810 5819 5822 5822 5816 5806
5639 5645 5646 5657 5658 5649 5633 5610 5608 5626 5642 5647 5660 5657 5651 5671 5674 5668 5650 5647 5659 5666 5656 5653 5671 5702 5713 5717 5718 5708 5702 5719 5692 5699 5683 5705 5739 5779 5773 5775 5791 5811 5813 5818 5824
5634 5638 5645 5668 5661 5644 5620 5616 5625 5638 5645 5645 5629 5641 5631 5643 5648 5649 5635 5639 5649 5659 5665 5651 5649 5678 5696 5707 5705 5691 5704 5693 5677 5672 5670 5691 5711 5722 5734 5748 5774 5794 5808 5820 5823
5636 5634 5660 5670 5662 5631 5605 5620 5630 5638 5639 5631 5625 5626 5628 5631 5633 5630 5621 5632 5646 5649 5647 5639 5638 5650 5674 5658 5657 5666 5656 5664 5680 5675 5661 5668 5691 5719 5721 5738 5752 5788 5813 5819 5823
5628 5629 5664 5668 5627 5615 5609 5623 5628 5622 5627 5622 5624 5622 5619 5622 5618 5617 5614 5625 5639 5640 5627 5629 5614 5619 5642 5654 5667 5665 5639 5640 5629 5651 5662 5668 5681 5715 5720 5735 5749 5776 5813 5805 5819
5619 5623 5658 5659 5604 5601 5617 5617 5617 5613 5611 5612 5609 5615 5618 5616 5607 5612 5616 5625 5630 5623 5615 5621 5594 5590 5614 5624 5636 5633 5636 5633 5635 5639 5653 5656 5673 5703 5714 5723 5729 5748 5762 5765 5767
5618 5612 5623 5624 5612 5609 5603 5599 5602 5611 5605 5605 5600 5604 5600 5594 5603 5597 5601 5611 5616 5617 5621 5609 5579 5576 5569 5585 5600 5612 5624 5630 5625 5612 5624 5642 5664 5674 5689 5701 5709 5716 5728 5739 5748
5613 5607 5611 5592 5595 5595 5593 5590 5591 5587 5595 5593 5586 5589 5583 5573 5581 5580 5585 5588 5598 5602 5601 5586 5571 5581 5582 5592 5602 5609 5617 5619 5618 5619 5616 5635 5650 5647 5668 5680 5689 5702 5704 5710 5718
5608 5602 5603 5594 5597 5588 5576 5572 5579 5579 5580 5573 5572 5576 5570 5562 5566 5565 5570 5572 5574 5578 5578 5571 5562 5568 5564 5583 5590 5598 5604 5609 5615 5615 5625 5634 5648 5644 5663 5675 5683 5690 5695 5699 5707
5607 5608 5600 5588 5586 5577 5572 5575 5573 5573 5575 5576 5573 5564 5562 5566 5572 5573 5572 5569 5572 5571 5566 5564 5552 5544 5552 5564 5572 5570 5577 5589 5593 5598 5607 5607 5619 5629 5644 5650 5654 5665 5679 5688 5694